Weather observations for the past three days for
Grand Forks, Grand Forks International Airport
Imperial (Metric)
Date Time (cdt) Wind (mph) Vis. (mi.) Weather Sky Cond. Temperature (ºF) Relative Humidity Wind Chill (°F) Heat Index (°F) Pressure Precipitation (in)
Air Dwpt 6 hour altimeter (in) sea level (mb) 1 hr 3 hr 6 hr
Max. Min.
14 05:53 NW 6 10.00 Partly Cloudy FEW080 SCT200 62.1 55.9 80% 29.9 1012.2
14 04:53 NW 6 10.00 Fair CLR 63 57.9 84% 29.9 1012.1
14 03:53 NW 5 10.00 Fair CLR 64 57.9 81% 29.89 1011.9
14 02:53 NW 5 10.00 Fair CLR 66.9 62.1 84% 29.88 1011.5
14 01:53 W 6 10.00 Fair CLR 68 64 87% 29.87 1011.3
14 00:53 NW 8 10.00 Fair CLR 70 64.9 86 69.1 84% 29.89 1011.8
13 23:53 NW 6 10.00 Fair CLR 71.1 66 84% 29.89 1012.0
13 22:53 NW 6 10.00 Partly Cloudy SCT095 75 68 79% 76 29.89 1011.6
13 21:53 N 7 10.00 Mostly Cloudy BKN100 79 66.9 67% 81 29.88 1011.4
13 20:53 N 5 10.00 Partly Cloudy SCT110 81 66.9 62% 83 29.86 1010.6
13 19:53 NW 7 10.00 Partly Cloudy FEW038 SCT100 84 66.9 57% 87 29.84 1010.0
13 18:53 N 9 10.00 Partly Cloudy FEW040TCU SCT110 86 66.9 91 84 53% 89 29.85 1010.5
13 17:53 NW 9 10.00 Mostly Cloudy FEW040TCU BKN110 87.1 66 50% 89 29.88 1011.6
13 16:53 NW 12 10.00 A Few Clouds FEW048 FEW100 88 64 45% 89 29.88 1011.5
13 15:53 W 5 10.00 A Few Clouds FEW120 89.1 66.9 48% 92 29.88 1011.3
13 14:53 N 8 10.00 Partly Cloudy FEW120 SCT170 86 66.9 53% 89 29.88 1011.3
13 13:53 SE 7 10.00 Mostly Cloudy BKN120 BKN170 84 64 51% 85 29.86 1010.8
13 12:53 NW 7 10.00 Mostly Cloudy BKN180 84.9 66 84.9 68 53% 87 29.88 1011.4
13 11:53 W 8 10.00 Overcast SCT130 BKN180 OVC240 79 66 65% 81 29.93 1013.2
13 10:53 SW 8 10.00 Mostly Cloudy SCT130 BKN240 82 63 53% 83 29.89 1011.8
13 09:53 S 8 10.00 Mostly Cloudy SCT150 BKN240 81 64.9 58% 83 29.89 1011.6
13 08:53 SE 7 10.00 Mostly Cloudy BKN240 81 63 54% 82 29.89 1011.6
13 07:53 Calm 10.00 Partly Cloudy SCT240 77 63 62% 79 29.9 1012.0
13 06:53 W 3 10.00 Partly Cloudy SCT130 68 61 75.9 64.9 78% 29.89 1011.8
13 05:53 S 9 10.00 Partly Cloudy FEW130 SCT250 66 61 84% 29.85 1010.3
13 04:53 SE 5 10.00 Fair CLR 70 61 73% 29.84 1010.0
13 03:53 S 5 10.00 Fair CLR 73 62.1 69% 29.83 1009.5
13 02:53 S 7 10.00 Fair CLR 75 64 69% 77 29.82 1009.4
13 01:53 S 10 10.00 Fair CLR 75 66 74% 76 29.86 1010.6
13 00:53 SE 8 10.00 A Few Clouds FEW049 75 66.9 89.1 75 76% 76 29.88 1011.3
12 23:53 S 7 10.00 Fair CLR 75.9 66.9 74% 77 29.9 1011.9
12 22:53 SE 5 10.00 A Few Clouds FEW040 77 66.9 71% 79 29.91 1012.2
12 21:53 S 8 10.00 Partly Cloudy FEW030 SCT120 80.1 66.9 64% 82 29.88 1011.4
12 20:53 SE 10 G 21 10.00 A Few Clouds FEW030 FEW120 82.9 69.1 63% 87 29.86 1010.8
12 19:53 S 10 10.00 A Few Clouds FEW038 87.1 70 57% 92 29.87 1011.2
12 18:53 S 12 10.00 A Few Clouds FEW044 89.1 69.1 91.9 88 52% 94 29.87 1011.0
12 17:53 S 15 10.00 A Few Clouds FEW050 90 66 45% 93 29.87 1011.0
12 16:53 S 15 10.00 A Few Clouds FEW055 91 66 44% 94 29.88 1011.5
12 15:53 S 13 10.00 A Few Clouds FEW060 91 64 41% 93 29.91 1012.4
12 14:53 S 16 G 24 10.00 A Few Clouds FEW060 90 64 42% 91 29.89 1011.7
12 13:53 S 16 G 29 10.00 A Few Clouds FEW040 89.1 64.9 45% 91 29.88 1011.5
12 12:53 S 18 G 28 10.00 Fair CLR 88 66 88 66.9 48% 90 29.9 1012.1
12 11:53 S 17 10.00 Fair CLR 84.9 66.9 55% 88 29.9 1012.0
12 10:53 S 14 10.00 Fair CLR 82 66.9 60% 85 29.91 1012.5
12 09:53 S 12 G 21 10.00 Fair CLR 79 64.9 62% 81 29.91 1012.7
12 08:53 S 10 10.00 A Few Clouds FEW200 75 64 69% 77 29.92 1012.7
12 07:53 S 9 10.00 Partly Cloudy SCT200 71.1 63 76% 29.92 1012.7
12 06:53 S 9 10.00 Partly Cloudy SCT250 66.9 61 71.1 64.9 81% 29.92 1012.8
12 05:53 SE 7 10.00 A Few Clouds FEW250 64.9 60.1 84% 29.92 1012.9
12 04:53 S 6 10.00 Fair CLR 66 60.1 81% 29.91 1012.4
12 03:53 S 8 10.00 Fair CLR 66.9 61 81% 29.9 1012.1
12 02:53 S 7 10.00 Fair CLR 68 61 78% 29.9 1012.2
12 01:53 S 9 10.00 Fair CLR 70 62.1 76% 29.91 1012.3
12 00:53 S 7 10.00 Fair CLR 71.1 62.1 84.9 70 73% 29.91 1012.6
11 23:53 S 7 10.00 Fair CLR 71.1 63 76% 29.92 1012.7
11 22:53 S 6 10.00 Fair CLR 70 63 79% 29.92 1013.0
11 21:53 S 6 10.00 Fair CLR 72 64 76% 29.92 1012.9
11 20:53 S 7 10.00 Fair CLR 78.1 64.9 64% 80 29.92 1012.7
11 19:53 S 7 10.00 Fair CLR 82 66 58% 84 29.92 1013.0
11 18:53 S 10 10.00 Fair CLR 84.9 64.9 89.1 84.9 51% 87 29.92 1013.0
11 17:53 SW 12 10.00 Fair CLR 87.1 64 46% 88 29.93 1013.3
11 16:53 S 16 G 24 10.00 Fair CLR 88 63 43% 89 29.94 1013.5
11 15:53 S 16 G 25 10.00 Fair CLR 89.1 62.1 41% 89 29.95 1013.7
11 14:53 S 14 G 22 10.00 Fair CLR 88 62.1 42% 88 29.95 1014.0
11 13:53 S 12 10.00 Fair CLR 88 64.9 46% 90 29.97 1014.4
11 12:53 S 13 10.00 Fair CLR 86 63 87.1 64.9 46% 87 29.98 1014.9
11 11:53 SW 12 10.00 Fair CLR 84.9 64 50% 86 29.99 1015.2
11 10:53 S 10 10.00 Fair CLR 82 64 55% 84 30 1015.5
11 09:53 S 9 10.00 Partly Cloudy SCT250 80.1 64 58% 82 30 1015.5
11 08:53 S 9 10.00 A Few Clouds FEW250 75 64 69% 77 30 1015.5
11 07:53 S 7 10.00 A Few Clouds FEW250 70 62.1 76% 30 1015.6
11 06:53 S 5 10.00 A Few Clouds FEW250 64 60.1 68 60.1 87% 30.01 1015.9
Date Time (cdt) Wind (mph) Vis. (mi.) Weather Sky Cond. Air Dwpt Max. Min. Relative Humidity Wind Chill (°F) Heat Index (°F) altimeter (in) sea level (mb) 1 hr 3 hr 6 hr
6 hour
Temperature (ºF) Pressure Precipitation (in)